User: anonymous   Login
Location: Lane
(33.5226°N, 79.8788°W)
Time: 21:09:06
(UTC+00:00)
Language:

Tiros 1 despin weight - Orbit

View from above orbital plane
View from above orbital plane
View from above satellite
View from above satellite

Ground track
Ground track

The orbit data is extracted from the following two-line orbital elements,

1 00115U 60002D   22273.19321148  .00002351  00000-0  29836-3 0  9992
2 00115  48.1660 218.1983 0034455 329.0305  30.8576 14.84661342315781
Epoch (UTC): 30 September 2022 04:38:13
Eccentricity: 0.0034455
inclination: 48.1660°
perigee height: 590 km
apogee height: 639 km
right ascension of ascending node: 218.1983°
argument of perigee: 329.0305°
revolutions per day: 14.84661342
mean anomaly at epoch: 30.8576°
orbit number at epoch: 31578

The dashed part of the orbit path shows where the satellite is in the earth's shadow,  

DLR